Time,TemperatureF,DewpointF,PressureIn,WindDirection,WindDirectionDegrees,WindSpeedMPH,WindSpeedGustMPH,Humidity,HourlyPrecipIn,Conditions,Clouds,dailyrainin,SoftwareType,DateUTC
2013-08-04 00:01:00,62.6,55.6,29.91,WNW,293,0.0,0.0,78,0.00,,,0.00,Wunderground v.1.15,2013-08-04 04:01:00,
2013-08-04 00:02:00,62.5,55.5,29.91,WNW,293,0.0,0.0,78,0.00,,,0.00,Wunderground v.1.15,2013-08-04 04:02:00,
2013-08-04 00:03:00,62.5,55.5,29.91,WNW,293,0.0,0.0,78,0.00,,,0.00,Wunderground v.1.15,2013-08-04 04:03:00,
2013-08-04 00:04:00,62.4,55.8,29.91,WNW,293,0.0,0.0,79,0.00,,,0.00,Wunderground v.1.15,2013-08-04 04:04:00,
2013-08-04 00:09:00,62.0,55.4,29.91,WNW,293,0.0,0.0,79,0.00,,,0.00,Wunderground v.1.15,2013-08-04 04:09:00,
2013-08-04 00:15:00,61.7,55.5,29.91,WNW,293,0.0,0.0,80,0.00,,,0.00,Wunderground v.1.15,2013-08-04 04:15:00,
2013-08-04 00:21:00,61.4,55.5,29.91,WNW,285,0.0,1.0,81,0.00,,,0.00,Wunderground v.1.15,2013-08-04 04:21:00,
2013-08-04 00:26:00,61.5,55.3,29.92,WNW,291,1.0,2.0,80,0.00,,,0.00,Wunderground v.1.15,2013-08-04 04:26:00,
2013-08-04 00:32:00,61.4,55.2,29.92,WNW,286,1.0,1.0,80,0.00,,,0.00,Wunderground v.1.15,2013-08-04 04:32:00,
2013-08-04 00:37:00,61.3,55.1,29.92,WNW,286,0.0,1.0,80,0.00,,,0.00,Wunderground v.1.15,2013-08-04 04:37:00,
2013-08-04 00:43:00,61.0,55.1,29.92,WNW,286,0.0,0.0,81,0.00,,,0.00,Wunderground v.1.15,2013-08-04 04:43:00,
2013-08-04 00:50:00,60.8,55.0,29.92,WNW,283,0.0,1.0,81,0.00,,,0.00,weatherlink.com 1.10,2013-08-04 04:50:00,
2013-08-04 00:55:00,60.8,54.9,29.92,WSW,244,0.0,1.0,81,0.00,,,0.00,Wunderground v.1.15,2013-08-04 04:55:00,
2013-08-04 01:00:00,60.8,54.9,29.92,West,269,0.0,0.0,81,0.00,,,0.00,Wunderground v.1.15,2013-08-04 05:00:00,
2013-08-04 01:06:00,60.7,54.8,29.92,NW,326,0.0,1.0,81,0.00,,,0.00,Wunderground v.1.15,2013-08-04 05:06:00,
2013-08-04 01:11:00,60.7,54.8,29.92,NNW,344,0.0,0.0,81,0.00,,,0.00,Wunderground v.1.15,2013-08-04 05:11:00,
2013-08-04 01:16:00,60.6,54.4,29.92,NW,308,0.0,1.0,80,0.00,,,0.00,Wunderground v.1.15,2013-08-04 05:16:00,
2013-08-04 01:22:00,60.5,54.6,29.92,NW,308,0.0,0.0,81,0.00,,,0.00,Wunderground v.1.15,2013-08-04 05:22:00,
2013-08-04 01:27:00,60.4,54.5,29.92,WNW,288,0.0,1.0,81,0.00,,,0.00,Wunderground v.1.15,2013-08-04 05:27:00,
2013-08-04 01:32:00,60.7,54.5,29.92,WNW,293,1.0,2.0,80,0.00,,,0.00,Wunderground v.1.15,2013-08-04 05:32:00,
2013-08-04 01:38:00,60.7,54.1,29.92,West,266,1.0,2.0,79,0.00,,,0.00,Wunderground v.1.15,2013-08-04 05:38:00,
2013-08-04 01:44:00,60.6,54.0,29.92,North,352,1.0,1.0,79,0.00,,,0.00,Wunderground v.1.15,2013-08-04 05:44:00,
2013-08-04 01:48:00,60.4,54.2,29.92,WNW,286,0.0,1.0,80,0.00,,,0.00,Wunderground v.1.15,2013-08-04 05:48:00,
2013-08-04 01:54:00,60.3,54.1,29.92,WNW,282,0.0,2.0,80,0.00,,,0.00,Wunderground v.1.15,2013-08-04 05:54:00,
2013-08-04 02:00:00,60.2,54.0,29.92,WNW,288,1.0,1.0,80,0.00,,,0.00,Wunderground v.1.15,2013-08-04 06:00:00,
2013-08-04 02:06:00,60.1,53.9,29.92,WNW,282,1.0,1.0,80,0.00,,,0.00,Wunderground v.1.15,2013-08-04 06:06:00,
2013-08-04 02:12:00,60.0,54.2,29.92,WNW,284,1.0,1.0,81,0.00,,,0.00,Wunderground v.1.15,2013-08-04 06:12:00,
2013-08-04 02:17:00,59.9,54.1,29.92,WNW,292,0.0,1.0,81,0.00,,,0.00,Wunderground v.1.15,2013-08-04 06:17:00,
2013-08-04 02:22:00,59.5,53.7,29.92,WNW,286,1.0,3.0,81,0.00,,,0.00,Wunderground v.1.15,2013-08-04 06:22:00,
2013-08-04 02:29:00,59.6,53.8,29.92,WNW,291,1.0,3.0,81,0.00,,,0.00,Wunderground v.1.15,2013-08-04 06:29:00,
2013-08-04 02:34:00,59.3,53.8,29.92,West,262,1.0,1.0,82,0.00,,,0.00,Wunderground v.1.15,2013-08-04 06:34:00,
2013-08-04 02:39:00,59.0,53.5,29.92,West,275,1.0,1.0,82,0.00,,,0.00,Wunderground v.1.15,2013-08-04 06:39:00,
2013-08-04 02:45:00,58.9,53.4,29.92,West,276,0.0,1.0,82,0.00,,,0.00,Wunderground v.1.15,2013-08-04 06:45:00,
2013-08-04 02:51:00,58.4,53.6,29.92,West,276,0.0,0.0,84,0.00,,,0.00,Wunderground v.1.15,2013-08-04 06:51:00,
2013-08-04 02:56:00,58.0,53.2,29.92,West,265,0.0,0.0,84,0.00,,,0.00,Wunderground v.1.15,2013-08-04 06:56:00,
2013-08-04 03:02:00,57.8,53.3,29.92,West,265,0.0,0.0,85,0.00,,,0.00,Wunderground v.1.15,2013-08-04 07:02:00,
2013-08-04 03:07:00,57.6,53.4,29.92,West,265,0.0,0.0,86,0.00,,,0.00,Wunderground v.1.15,2013-08-04 07:07:00,
2013-08-04 03:13:00,57.1,53.3,29.92,West,265,0.0,0.0,87,0.00,,,0.00,Wunderground v.1.15,2013-08-04 07:13:00,
2013-08-04 03:18:00,56.9,53.4,29.92,West,265,0.0,0.0,88,0.00,,,0.00,Wunderground v.1.15,2013-08-04 07:18:00,
2013-08-04 03:23:00,56.9,53.4,29.92,West,265,0.0,0.0,88,0.00,,,0.00,Wunderground v.1.15,2013-08-04 07:23:00,
2013-08-04 03:29:00,56.7,53.5,29.92,West,265,0.0,0.0,89,0.00,,,0.00,Wunderground v.1.15,2013-08-04 07:29:00,
2013-08-04 03:35:00,56.2,53.3,29.92,West,265,0.0,0.0,90,0.00,,,0.00,Wunderground v.1.15,2013-08-04 07:35:00,
2013-08-04 03:40:00,55.9,53.0,29.92,West,265,0.0,0.0,90,0.00,,,0.00,Wunderground v.1.15,2013-08-04 07:40:00,
2013-08-04 03:45:00,55.6,53.3,29.92,West,265,0.0,0.0,92,0.00,,,0.00,Wunderground v.1.15,2013-08-04 07:45:00,
2013-08-04 03:51:00,55.5,53.0,29.92,West,265,0.0,0.0,92,0.00,,,0.00,weatherlink.com 1.10,2013-08-04 07:51:00,
2013-08-04 03:57:00,55.5,53.2,29.92,West,265,0.0,0.0,92,0.00,,,0.00,Wunderground v.1.15,2013-08-04 07:57:00,
2013-08-04 04:03:00,55.2,52.9,29.92,West,265,0.0,0.0,92,0.00,,,0.00,Wunderground v.1.15,2013-08-04 08:03:00,
2013-08-04 04:09:00,54.8,52.5,29.92,West,265,0.0,0.0,92,0.00,,,0.00,Wunderground v.1.15,2013-08-04 08:09:00,
2013-08-04 04:15:00,54.4,52.4,29.92,West,265,0.0,0.0,93,0.00,,,0.00,Wunderground v.1.15,2013-08-04 08:15:00,
2013-08-04 04:20:00,54.2,52.0,29.92,West,265,0.0,0.0,93,0.00,,,0.00,weatherlink.com 1.10,2013-08-04 08:20:00,
2013-08-04 04:26:00,54.1,52.4,29.92,West,265,0.0,0.0,94,0.00,,,0.00,Wunderground v.1.15,2013-08-04 08:26:00,
2013-08-04 04:31:00,54.0,52.3,29.92,West,265,0.0,0.0,94,0.00,,,0.00,Wunderground v.1.15,2013-08-04 08:31:00,
2013-08-04 04:37:00,54.0,52.6,29.92,West,265,0.0,0.0,95,0.00,,,0.00,Wunderground v.1.15,2013-08-04 08:37:00,
2013-08-04 04:42:00,54.2,52.5,29.92,West,265,0.0,1.0,94,0.00,,,0.00,Wunderground v.1.15,2013-08-04 08:42:00,
2013-08-04 04:49:00,54.4,52.7,29.92,SW,236,0.0,1.0,94,0.00,,,0.00,Wunderground v.1.15,2013-08-04 08:49:00,
2013-08-04 04:55:00,54.6,52.6,29.92,WSW,240,0.0,0.0,93,0.00,,,0.00,Wunderground v.1.15,2013-08-04 08:55:00,
2013-08-04 05:00:00,54.6,52.6,29.92,WSW,240,0.0,0.0,93,0.00,,,0.00,Wunderground v.1.15,2013-08-04 09:00:00,
2013-08-04 05:05:00,54.6,52.6,29.92,WSW,239,0.0,1.0,93,0.00,,,0.00,Wunderground v.1.15,2013-08-04 09:05:00,
2013-08-04 05:11:00,54.6,52.6,29.92,WSW,247,0.0,0.0,93,0.00,,,0.00,Wunderground v.1.15,2013-08-04 09:11:00,
2013-08-04 05:15:00,54.5,52.5,29.92,WSW,247,0.0,0.0,93,0.00,,,0.00,Wunderground v.1.15,2013-08-04 09:15:00,
2013-08-04 05:21:00,54.2,52.2,29.93,WSW,247,0.0,0.0,93,0.00,,,0.00,Wunderground v.1.15,2013-08-04 09:21:00,
2013-08-04 05:27:00,53.9,51.9,29.93,WSW,247,0.0,0.0,93,0.00,,,0.00,Wunderground v.1.15,2013-08-04 09:27:00,
2013-08-04 05:33:00,53.9,52.2,29.93,WSW,247,0.0,0.0,94,0.00,,,0.00,Wunderground v.1.15,2013-08-04 09:33:00,
2013-08-04 05:38:00,53.9,52.5,29.93,WSW,247,0.0,0.0,95,0.00,,,0.00,Wunderground v.1.15,2013-08-04 09:38:00,
2013-08-04 05:44:00,53.7,52.0,29.93,WSW,247,0.0,0.0,94,0.00,,,0.00,Wunderground v.1.15,2013-08-04 09:44:00,
2013-08-04 05:49:00,53.4,51.7,29.93,WSW,247,0.0,0.0,94,0.00,,,0.00,Wunderground v.1.15,2013-08-04 09:49:00,
2013-08-04 05:54:00,53.3,51.9,29.93,WSW,247,0.0,0.0,95,0.00,,,0.00,Wunderground v.1.15,2013-08-04 09:54:00,
2013-08-04 06:00:00,53.3,51.9,29.93,WSW,247,0.0,0.0,95,0.00,,,0.00,Wunderground v.1.15,2013-08-04 10:00:00,
2013-08-04 06:06:00,53.1,51.7,29.93,WSW,247,0.0,0.0,95,0.00,,,0.00,Wunderground v.1.15,2013-08-04 10:06:00,
2013-08-04 06:11:00,53.0,51.6,29.93,WSW,247,0.0,0.0,95,0.00,,,0.00,Wunderground v.1.15,2013-08-04 10:11:00,
2013-08-04 06:17:00,52.8,51.4,29.94,WSW,247,0.0,0.0,95,0.00,,,0.00,Wunderground v.1.15,2013-08-04 10:17:00,
2013-08-04 06:21:00,52.8,52.0,29.93,WSW,247,0.0,0.0,95,0.00,,,0.00,weatherlink.com 1.10,2013-08-04 10:21:00,
2013-08-04 06:28:00,52.7,51.3,29.93,WSW,247,0.0,0.0,95,0.00,,,0.00,Wunderground v.1.15,2013-08-04 10:28:00,
2013-08-04 06:34:00,52.7,51.6,29.94,WSW,247,0.0,0.0,96,0.00,,,0.00,Wunderground v.1.15,2013-08-04 10:34:00,
2013-08-04 06:39:00,52.7,51.6,29.94,WSW,247,0.0,0.0,96,0.00,,,0.00,Wunderground v.1.15,2013-08-04 10:39:00,
2013-08-04 06:45:00,52.9,51.8,29.94,WSW,247,0.0,0.0,96,0.00,,,0.00,Wunderground v.1.15,2013-08-04 10:45:00,
2013-08-04 06:50:00,53.2,52.4,29.94,SW,233,0.0,0.0,97,0.00,,,0.00,Wunderground v.1.15,2013-08-04 10:50:00,
2013-08-04 06:56:00,53.7,52.9,29.94,WSW,241,0.0,0.0,97,0.00,,,0.00,Wunderground v.1.15,2013-08-04 10:56:00,
2013-08-04 07:01:00,53.9,53.1,29.94,South,189,0.0,0.0,97,0.00,,,0.00,Wunderground v.1.15,2013-08-04 11:01:00,
2013-08-04 07:07:00,54.1,53.0,29.94,SSW,211,0.0,1.0,97,0.00,,,0.00,weatherlink.com 1.10,2013-08-04 11:07:00,
2013-08-04 07:11:00,54.4,53.6,29.94,SSW,211,0.0,1.0,97,0.00,,,0.00,Wunderground v.1.15,2013-08-04 11:11:00,
2013-08-04 07:18:00,54.8,53.7,29.94,SW,215,0.0,1.0,96,0.00,,,0.00,Wunderground v.1.15,2013-08-04 11:18:00,
2013-08-04 07:23:00,55.3,54.2,29.94,WSW,243,0.0,1.0,96,0.00,,,0.00,Wunderground v.1.15,2013-08-04 11:23:00,
2013-08-04 07:29:00,55.9,54.8,29.94,WSW,242,0.0,1.0,96,0.00,,,0.00,Wunderground v.1.15,2013-08-04 11:29:00,
2013-08-04 07:34:00,56.3,54.9,29.94,WSW,250,0.0,1.0,95,0.00,,,0.00,Wunderground v.1.15,2013-08-04 11:34:00,
2013-08-04 07:39:00,56.7,55.0,29.95,SSW,210,1.0,1.0,94,0.00,,,0.00,Wunderground v.1.15,2013-08-04 11:39:00,
2013-08-04 07:45:00,57.4,55.7,29.95,SSW,210,1.0,2.0,94,0.00,,,0.00,Wunderground v.1.15,2013-08-04 11:45:00,
2013-08-04 07:51:00,58.0,56.3,29.95,West,276,1.0,1.0,94,0.00,,,0.00,Wunderground v.1.15,2013-08-04 11:51:00,
2013-08-04 07:57:00,58.7,56.7,29.95,WNW,302,1.0,2.0,93,0.00,,,0.00,Wunderground v.1.15,2013-08-04 11:57:00,
2013-08-04 08:02:00,59.2,56.9,29.95,West,278,1.0,2.0,92,0.00,,,0.00,Wunderground v.1.15,2013-08-04 12:02:00,
2013-08-04 08:07:00,59.5,57.0,29.95,NW,319,0.0,4.0,92,0.00,,,0.00,weatherlink.com 1.10,2013-08-04 12:07:00,
2013-08-04 08:14:00,59.7,57.1,29.96,North,10,1.0,4.0,91,0.00,,,0.00,Wunderground v.1.15,2013-08-04 12:14:00,
2013-08-04 08:19:00,59.8,56.9,29.95,NE,37,1.0,4.0,90,0.00,,,0.00,Wunderground v.1.15,2013-08-04 12:19:00,
2013-08-04 08:24:00,59.9,57.0,29.96,WNW,289,1.0,1.0,90,0.00,,,0.00,Wunderground v.1.15,2013-08-04 12:24:00,
2013-08-04 08:51:00,61.2,57.9,29.96,North,11,0.0,1.0,89,0.00,,,0.00,Wunderground v.1.15,2013-08-04 12:51:00,
2013-08-04 08:56:00,61.3,58.0,29.96,West,281,1.0,1.0,89,0.00,,,0.00,Wunderground v.1.15,2013-08-04 12:56:00,
2013-08-04 09:02:00,61.6,58.3,29.96,NNE,18,0.0,1.0,89,0.00,,,0.00,Wunderground v.1.15,2013-08-04 13:02:00,
2013-08-04 09:07:00,62.2,58.6,29.96,North,354,1.0,2.0,88,0.00,,,0.00,Wunderground v.1.15,2013-08-04 13:07:00,
2013-08-04 09:13:00,62.8,58.5,29.97,NNE,16,1.0,2.0,86,0.00,,,0.00,Wunderground v.1.15,2013-08-04 13:13:00,
2013-08-04 09:19:00,63.3,58.7,29.96,NNW,348,1.0,7.0,85,0.00,,,0.00,Wunderground v.1.15,2013-08-04 13:19:00,
2013-08-04 09:24:00,63.6,58.7,29.97,NE,49,2.0,4.0,84,0.00,,,0.00,Wunderground v.1.15,2013-08-04 13:24:00,
2013-08-04 09:29:00,64.2,58.6,29.97,NE,54,2.0,2.0,82,0.00,,,0.00,Wunderground v.1.15,2013-08-04 13:29:00,
2013-08-04 09:35:00,64.9,59.6,29.97,SE,124,2.0,2.0,83,0.00,,,0.00,Wunderground v.1.15,2013-08-04 13:35:00,
2013-08-04 09:41:00,65.0,59.0,29.97,NNE,28,1.0,1.0,81,0.00,,,0.00,Wunderground v.1.15,2013-08-04 13:41:00,
2013-08-04 09:46:00,65.3,59.0,29.97,ENE,58,1.0,4.0,80,0.00,,,0.00,Wunderground v.1.15,2013-08-04 13:46:00,
2013-08-04 09:52:00,66.1,59.0,29.97,NE,45,1.0,3.0,78,0.00,,,0.00,Wunderground v.1.15,2013-08-04 13:52:00,
2013-08-04 09:58:00,65.4,58.7,29.97,NNE,17,2.0,3.0,79,0.00,,,0.00,Wunderground v.1.15,2013-08-04 13:58:00,
2013-08-04 10:03:00,65.0,58.3,29.97,NNE,20,1.0,4.0,79,0.00,,,0.00,Wunderground v.1.15,2013-08-04 14:03:00,
2013-08-04 10:09:00,64.5,58.2,29.97,NNE,13,1.0,4.0,80,0.00,,,0.00,Wunderground v.1.15,2013-08-04 14:09:00,
2013-08-04 10:15:00,64.4,58.4,29.98,North,10,1.0,3.0,81,0.00,,,0.00,Wunderground v.1.15,2013-08-04 14:15:00,
2013-08-04 10:20:00,65.2,60.2,29.98,NNE,30,1.0,2.0,84,0.00,,,0.00,Wunderground v.1.15,2013-08-04 14:20:00,
2013-08-04 10:25:00,65.2,58.9,29.98,North,354,1.0,4.0,80,0.00,,,0.00,Wunderground v.1.15,2013-08-04 14:25:00,
2013-08-04 10:32:00,65.1,58.4,29.98,NNE,30,2.0,2.0,79,0.00,,,0.00,Wunderground v.1.15,2013-08-04 14:32:00,
2013-08-04 10:37:00,65.4,58.0,29.98,NNE,15,2.0,4.0,77,0.00,,,0.00,Wunderground v.1.15,2013-08-04 14:37:00,
2013-08-04 10:43:00,65.4,58.4,29.98,NE,36,2.0,5.0,78,0.00,,,0.00,Wunderground v.1.15,2013-08-04 14:43:00,
2013-08-04 10:49:00,66.2,57.7,29.98,NE,52,2.0,5.0,74,0.00,,,0.00,Wunderground v.1.15,2013-08-04 14:49:00,
2013-08-04 10:54:00,66.7,57.0,29.98,North,1,3.0,3.0,71,0.00,,,0.00,Wunderground v.1.15,2013-08-04 14:54:00,
2013-08-04 11:00:00,67.1,57.0,29.99,ENE,68,3.0,4.0,70,0.00,,,0.00,Wunderground v.1.15,2013-08-04 15:00:00,
2013-08-04 11:06:00,67.1,57.4,29.99,WNW,300,4.0,6.0,71,0.00,,,0.00,Wunderground v.1.15,2013-08-04 15:06:00,
2013-08-04 11:11:00,66.7,56.6,29.99,NNE,32,4.0,5.0,70,0.00,,,0.00,Wunderground v.1.15,2013-08-04 15:11:00,
2013-08-04 11:17:00,66.8,56.3,29.99,NNW,348,3.0,6.0,69,0.00,,,0.00,Wunderground v.1.15,2013-08-04 15:17:00,
2013-08-04 11:22:00,67.5,56.6,29.99,North,354,2.0,12.0,68,0.00,,,0.00,Wunderground v.1.15,2013-08-04 15:22:00,
2013-08-04 11:27:00,67.6,56.2,29.99,NE,51,3.0,12.0,67,0.00,,,0.00,Wunderground v.1.15,2013-08-04 15:27:00,
2013-08-04 11:33:00,67.2,56.7,29.99,East,86,3.0,3.0,69,0.00,,,0.00,Wunderground v.1.15,2013-08-04 15:33:00,
2013-08-04 11:39:00,67.8,58.0,29.99,NE,50,2.0,7.0,71,0.00,,,0.00,weatherlink.com 1.10,2013-08-04 15:39:00,
2013-08-04 11:44:00,67.9,57.4,30.00,NE,39,1.0,2.0,69,0.00,,,0.00,Wunderground v.1.15,2013-08-04 15:44:00,
2013-08-04 11:50:00,67.5,56.2,29.99,NE,49,2.0,2.0,67,0.00,,,0.00,Wunderground v.1.15,2013-08-04 15:50:00,
2013-08-04 11:55:00,66.9,56.0,29.99,NE,38,1.0,7.0,69,0.00,,,0.00,weatherlink.com 1.10,2013-08-04 15:55:00,
2013-08-04 12:00:00,67.5,56.6,29.99,NNE,28,3.0,3.0,68,0.00,,,0.00,Wunderground v.1.15,2013-08-04 16:00:00,
2013-08-04 12:05:00,68.0,57.4,29.99,North,354,2.0,3.0,69,0.00,,,0.00,Wunderground v.1.15,2013-08-04 16:05:00,
2013-08-04 12:11:00,68.1,56.7,29.99,North,354,2.0,2.0,67,0.00,,,0.00,Wunderground v.1.15,2013-08-04 16:11:00,
2013-08-04 12:17:00,68.2,56.0,29.99,North,360,2.0,4.0,65,0.00,,,0.00,Wunderground v.1.15,2013-08-04 16:17:00,
2013-08-04 12:23:00,68.5,56.3,29.99,North,349,2.0,5.0,65,0.00,,,0.00,Wunderground v.1.15,2013-08-04 16:23:00,
2013-08-04 12:24:00,68.5,55.4,29.99,NNE,26,2.0,5.0,63,0.00,,,0.00,Wunderground v.1.15,2013-08-04 16:24:00,
2013-08-04 12:30:00,68.6,54.6,29.99,North,1,3.0,3.0,61,0.00,,,0.00,Wunderground v.1.15,2013-08-04 16:30:00,
2013-08-04 12:36:00,68.9,54.9,29.99,NE,51,3.0,5.0,61,0.00,,,0.00,Wunderground v.1.15,2013-08-04 16:36:00,
2013-08-04 12:42:00,69.2,55.6,29.99,NNE,18,3.0,4.0,62,0.00,,,0.00,Wunderground v.1.15,2013-08-04 16:42:00,
2013-08-04 12:47:00,69.9,55.4,29.99,ENE,78,2.0,4.0,60,0.00,,,0.00,Wunderground v.1.15,2013-08-04 16:47:00,
2013-08-04 12:52:00,69.9,56.3,29.99,NNE,16,2.0,4.0,62,0.00,,,0.00,Wunderground v.1.15,2013-08-04 16:52:00,
2013-08-04 12:57:00,69.5,55.5,29.99,NE,45,2.0,5.0,61,0.00,,,0.00,Wunderground v.1.15,2013-08-04 16:57:00,
2013-08-04 13:03:00,69.1,56.0,29.99,WNW,299,3.0,5.0,63,0.00,,,0.00,Wunderground v.1.15,2013-08-04 17:03:00,
2013-08-04 13:09:00,69.3,55.0,29.98,NNE,15,1.0,9.0,60,0.00,,,0.00,weatherlink.com 1.10,2013-08-04 17:09:00,
2013-08-04 13:14:00,68.8,54.8,29.99,North,11,3.0,3.0,61,0.00,,,0.00,Wunderground v.1.15,2013-08-04 17:14:00,
2013-08-04 13:19:00,68.6,55.1,29.98,North,360,2.0,5.0,62,0.00,,,0.00,Wunderground v.1.15,2013-08-04 17:19:00,
2013-08-04 13:25:00,69.2,55.0,29.98,North,349,0.0,7.0,62,0.00,,,0.00,weatherlink.com 1.10,2013-08-04 17:25:00,
2013-08-04 13:30:00,69.6,55.1,29.99,NW,321,2.0,5.0,60,0.00,,,0.00,Wunderground v.1.15,2013-08-04 17:30:00,
2013-08-04 13:35:00,69.4,54.9,29.99,North,359,2.0,9.0,60,0.00,,,0.00,Wunderground v.1.15,2013-08-04 17:35:00,
2013-08-04 13:42:00,69.0,54.5,29.99,NE,41,2.0,4.0,60,0.00,,,0.00,Wunderground v.1.15,2013-08-04 17:42:00,
2013-08-04 13:48:00,68.5,54.5,29.99,North,6,2.0,4.0,61,0.00,,,0.00,Wunderground v.1.15,2013-08-04 17:48:00,
2013-08-04 13:53:00,68.7,55.0,29.99,West,269,1.0,7.0,62,0.00,,,0.00,weatherlink.com 1.10,2013-08-04 17:53:00,
2013-08-04 13:59:00,69.6,57.3,29.99,NNE,18,2.0,7.0,65,0.00,,,0.00,Wunderground v.1.15,2013-08-04 17:59:00,
2013-08-04 14:04:00,70.2,55.7,29.99,North,5,2.0,3.0,60,0.00,,,0.00,Wunderground v.1.15,2013-08-04 18:04:00,
2013-08-04 14:10:00,70.6,56.0,29.99,NE,55,2.0,4.0,60,0.00,,,0.00,weatherlink.com 1.10,2013-08-04 18:10:00,
2013-08-04 14:16:00,69.9,55.4,29.99,NNE,19,1.0,4.0,60,0.00,,,0.00,Wunderground v.1.15,2013-08-04 18:16:00,
2013-08-04 14:21:00,69.9,56.3,29.99,WNW,291,2.0,2.0,62,0.00,,,0.00,Wunderground v.1.15,2013-08-04 18:21:00,
2013-08-04 14:27:00,70.1,56.0,29.99,NNE,13,2.0,3.0,61,0.00,,,0.00,Wunderground v.1.15,2013-08-04 18:27:00,
2013-08-04 14:32:00,69.8,55.7,29.99,ENE,66,2.0,2.0,61,0.00,,,0.00,Wunderground v.1.15,2013-08-04 18:32:00,
2013-08-04 14:38:00,69.5,55.9,29.99,NE,38,2.0,5.0,62,0.00,,,0.00,Wunderground v.1.15,2013-08-04 18:38:00,
2013-08-04 14:43:00,69.3,54.8,29.99,NNE,12,2.0,4.0,60,0.00,,,0.00,Wunderground v.1.15,2013-08-04 18:43:00,
2013-08-04 14:49:00,68.9,54.4,29.99,NNE,19,3.0,4.0,60,0.00,,,0.00,Wunderground v.1.15,2013-08-04 18:49:00,
2013-08-04 14:55:00,68.5,54.0,29.99,NNE,19,1.0,6.0,61,0.00,,,0.00,weatherlink.com 1.10,2013-08-04 18:55:00,
2013-08-04 15:00:00,69.0,55.9,29.99,WNW,283,2.0,2.0,63,0.00,,,0.00,Wunderground v.1.15,2013-08-04 19:00:00,
2013-08-04 15:05:00,70.3,56.7,29.99,NNW,340,1.0,3.0,62,0.00,,,0.00,Wunderground v.1.15,2013-08-04 19:05:00,
2013-08-04 15:10:00,70.3,55.3,29.99,NNE,18,2.0,2.0,59,0.00,,,0.00,Wunderground v.1.15,2013-08-04 19:10:00,
2013-08-04 15:16:00,70.1,55.6,29.99,North,349,2.0,5.0,60,0.00,,,0.00,Wunderground v.1.15,2013-08-04 19:16:00,
2013-08-04 15:21:00,69.9,55.4,29.99,NNW,327,1.0,2.0,60,0.00,,,0.00,Wunderground v.1.15,2013-08-04 19:21:00,
2013-08-04 15:27:00,70.8,55.8,29.99,North,352,1.0,3.0,59,0.00,,,0.00,Wunderground v.1.15,2013-08-04 19:27:00,
2013-08-04 15:32:00,70.9,54.4,29.99,NNW,327,2.0,6.0,56,0.00,,,0.00,Wunderground v.1.15,2013-08-04 19:32:00,
2013-08-04 15:38:00,70.5,54.5,29.99,NNW,328,3.0,6.0,57,0.00,,,0.00,Wunderground v.1.15,2013-08-04 19:38:00,
2013-08-04 15:43:00,70.4,55.4,29.99,WSW,253,3.0,4.0,59,0.00,,,0.00,Wunderground v.1.15,2013-08-04 19:43:00,
2013-08-04 15:48:00,70.4,54.0,29.99,North,356,2.0,4.0,56,0.00,,,0.00,Wunderground v.1.15,2013-08-04 19:48:00,
2013-08-04 15:53:00,70.5,54.5,29.99,West,259,1.0,2.0,57,0.00,,,0.00,Wunderground v.1.15,2013-08-04 19:53:00,
2013-08-04 15:59:00,71.3,56.7,29.99,NNW,328,1.0,2.0,60,0.00,,,0.00,Wunderground v.1.15,2013-08-04 19:59:00,
2013-08-04 16:04:00,70.9,54.4,29.98,NNW,329,1.0,2.0,56,0.00,,,0.00,Wunderground v.1.15,2013-08-04 20:04:00,
2013-08-04 16:10:00,70.9,55.4,29.99,WNW,293,2.0,2.0,58,0.00,,,0.00,Wunderground v.1.15,2013-08-04 20:10:00,
2013-08-04 16:14:00,70.3,54.3,29.99,NE,42,2.0,6.0,57,0.00,,,0.00,Wunderground v.1.15,2013-08-04 20:14:00,
2013-08-04 16:19:00,70.2,54.2,29.98,West,271,3.0,3.0,57,0.00,,,0.00,Wunderground v.1.15,2013-08-04 20:19:00,
2013-08-04 16:26:00,70.9,54.4,29.98,NE,47,2.0,3.0,56,0.00,,,0.00,Wunderground v.1.15,2013-08-04 20:26:00,
2013-08-04 16:31:00,71.0,54.5,29.98,WNW,301,2.0,3.0,56,0.00,,,0.00,Wunderground v.1.15,2013-08-04 20:31:00,
2013-08-04 16:37:00,71.0,55.5,29.98,WNW,283,2.0,5.0,58,0.00,,,0.00,Wunderground v.1.15,2013-08-04 20:37:00,
2013-08-04 16:42:00,71.0,56.4,29.98,NNE,18,2.0,2.0,60,0.00,,,0.00,Wunderground v.1.15,2013-08-04 20:42:00,
2013-08-04 16:47:00,70.7,54.7,29.98,NW,304,2.0,2.0,57,0.00,,,0.00,Wunderground v.1.15,2013-08-04 20:47:00,
2013-08-04 16:53:00,69.8,54.8,29.98,NNE,18,2.0,5.0,59,0.00,,,0.00,Wunderground v.1.15,2013-08-04 20:53:00,
2013-08-04 16:58:00,70.1,55.6,29.98,NNE,33,2.0,5.0,60,0.00,,,0.00,Wunderground v.1.15,2013-08-04 20:58:00,
2013-08-04 17:04:00,70.9,54.4,29.98,NW,326,2.0,6.0,56,0.00,,,0.00,Wunderground v.1.15,2013-08-04 21:04:00,
2013-08-04 17:09:00,71.5,54.5,29.98,NW,318,2.0,6.0,55,0.00,,,0.00,Wunderground v.1.15,2013-08-04 21:09:00,
2013-08-04 17:15:00,72.4,53.8,29.98,NW,321,2.0,8.0,52,0.00,,,0.00,Wunderground v.1.15,2013-08-04 21:15:00,
2013-08-04 17:21:00,72.3,53.2,29.98,ENE,71,2.0,4.0,51,0.00,,,0.00,Wunderground v.1.15,2013-08-04 21:21:00,
2013-08-04 17:26:00,72.1,55.5,29.98,NNW,336,1.0,4.0,56,0.00,,,0.00,Wunderground v.1.15,2013-08-04 21:26:00,
2013-08-04 17:32:00,72.1,53.5,29.98,NE,34,1.0,4.0,52,0.00,,,0.00,Wunderground v.1.15,2013-08-04 21:32:00,
2013-08-04 17:38:00,71.6,53.0,29.98,NNE,27,2.0,9.0,52,0.00,,,0.00,Wunderground v.1.15,2013-08-04 21:38:00,
2013-08-04 17:42:00,71.1,53.1,29.98,NNE,18,3.0,6.0,53,0.00,,,0.00,Wunderground v.1.15,2013-08-04 21:42:00,
2013-08-04 17:49:00,71.1,53.1,29.98,North,8,3.0,6.0,53,0.00,,,0.00,Wunderground v.1.15,2013-08-04 21:49:00,
2013-08-04 17:55:00,71.3,53.0,29.98,North,6,3.0,6.0,53,0.00,,,0.00,weatherlink.com 1.10,2013-08-04 21:55:00,
2013-08-04 17:56:00,71.2,53.7,29.98,NNE,13,3.0,4.0,54,0.00,,,0.00,Wunderground v.1.15,2013-08-04 21:56:00,
2013-08-04 18:01:00,70.9,52.9,29.98,NNE,13,2.0,3.0,53,0.00,,,0.00,Wunderground v.1.15,2013-08-04 22:01:00,
2013-08-04 18:06:00,71.4,53.9,29.98,WNW,299,2.0,3.0,54,0.00,,,0.00,Wunderground v.1.15,2013-08-04 22:06:00,
2013-08-04 18:11:00,71.6,54.1,29.98,NNW,346,1.0,4.0,54,0.00,,,0.00,Wunderground v.1.15,2013-08-04 22:11:00,
2013-08-04 18:17:00,71.8,53.7,29.98,NNW,345,2.0,4.0,53,0.00,,,0.00,Wunderground v.1.15,2013-08-04 22:17:00,
2013-08-04 18:22:00,72.0,55.4,29.98,NNE,29,1.0,1.0,56,0.00,,,0.00,Wunderground v.1.15,2013-08-04 22:22:00,
2013-08-04 18:28:00,71.6,54.1,29.98,North,349,2.0,5.0,54,0.00,,,0.00,Wunderground v.1.15,2013-08-04 22:28:00,
2013-08-04 18:33:00,71.2,53.2,29.98,NNE,23,2.0,4.0,53,0.00,,,0.00,Wunderground v.1.15,2013-08-04 22:33:00,
2013-08-04 18:37:00,71.7,54.7,29.98,North,357,2.0,4.0,55,0.00,,,0.00,Wunderground v.1.15,2013-08-04 22:37:00,
2013-08-04 18:43:00,72.2,54.6,29.98,NE,43,0.0,2.0,54,0.00,,,0.00,Wunderground v.1.15,2013-08-04 22:43:00,
2013-08-04 18:48:00,71.3,55.3,29.98,NE,39,1.0,2.0,57,0.00,,,0.00,Wunderground v.1.15,2013-08-04 22:48:00,
2013-08-04 18:53:00,70.0,54.5,29.99,NNE,31,3.0,5.0,58,0.00,,,0.00,Wunderground v.1.15,2013-08-04 22:53:00,
2013-08-04 18:57:00,69.3,53.9,29.99,NNE,30,3.0,5.0,58,0.00,,,0.00,Wunderground v.1.15,2013-08-04 22:57:00,
2013-08-04 19:03:00,68.9,53.5,29.99,NE,42,3.0,8.0,58,0.00,,,0.00,Wunderground v.1.15,2013-08-04 23:03:00,
2013-08-04 19:09:00,68.6,54.2,29.99,NNE,20,3.0,8.0,60,0.00,,,0.00,Wunderground v.1.15,2013-08-04 23:09:00,
2013-08-04 19:14:00,68.5,54.1,30.00,NE,54,2.0,4.0,60,0.00,,,0.00,Wunderground v.1.15,2013-08-04 23:14:00,
2013-08-04 19:19:00,68.1,52.8,30.00,ENE,58,2.0,4.0,58,0.00,,,0.00,Wunderground v.1.15,2013-08-04 23:19:00,
2013-08-04 19:25:00,67.6,52.8,30.00,NNW,341,3.0,5.0,59,0.00,,,0.00,Wunderground v.1.15,2013-08-04 23:25:00,
2013-08-04 19:30:00,67.1,51.4,30.00,NE,55,3.0,3.0,57,0.00,,,0.00,Wunderground v.1.15,2013-08-04 23:30:00,
2013-08-04 19:36:00,66.5,51.3,30.00,NNE,31,2.0,5.0,58,0.00,,,0.00,Wunderground v.1.15,2013-08-04 23:36:00,
2013-08-04 19:41:00,65.9,51.0,30.00,NNE,23,1.0,5.0,59,0.00,,,0.00,weatherlink.com 1.10,2013-08-04 23:41:00,
2013-08-04 19:47:00,65.3,51.5,30.01,NNE,29,2.0,5.0,61,0.00,,,0.00,Wunderground v.1.15,2013-08-04 23:47:00,
2013-08-04 19:51:00,65.1,51.3,30.01,NNE,28,2.0,2.0,61,0.00,,,0.00,Wunderground v.1.15,2013-08-04 23:51:00,
2013-08-04 19:57:00,64.7,50.0,30.01,ENE,63,1.0,3.0,59,0.00,,,0.00,Wunderground v.1.15,2013-08-04 23:57:00,
2013-08-04 20:03:00,64.5,50.3,30.01,NNW,334,2.0,5.0,60,0.00,,,0.00,Wunderground v.1.15,2013-08-05 00:03:00,
2013-08-04 20:09:00,64.1,49.5,30.01,NNE,29,1.0,5.0,59,0.00,,,0.00,Wunderground v.1.15,2013-08-05 00:09:00,
2013-08-04 20:15:00,63.8,49.2,30.01,North,360,1.0,4.0,59,0.00,,,0.00,Wunderground v.1.15,2013-08-05 00:15:00,
2013-08-04 20:20:00,63.3,49.6,30.01,NNE,31,1.0,1.0,61,0.00,,,0.00,Wunderground v.1.15,2013-08-05 00:20:00,
2013-08-04 20:26:00,62.9,49.0,30.01,North,1,0.0,2.0,61,0.00,,,0.00,weatherlink.com 1.10,2013-08-05 00:26:00,
2013-08-04 20:31:00,62.5,49.3,30.01,NNE,15,0.0,0.0,62,0.00,,,0.00,Wunderground v.1.15,2013-08-05 00:31:00,
2013-08-04 20:36:00,62.1,49.4,30.01,NNE,14,0.0,1.0,63,0.00,,,0.00,Wunderground v.1.15,2013-08-05 00:36:00,
2013-08-04 20:42:00,61.5,50.0,30.01,NNE,14,1.0,1.0,65,0.00,,,0.00,weatherlink.com 1.10,2013-08-05 00:42:00,
2013-08-04 20:47:00,61.1,49.7,30.01,NNE,15,0.0,0.0,66,0.00,,,0.00,Wunderground v.1.15,2013-08-05 00:47:00,
2013-08-04 20:52:00,60.9,49.5,30.02,NNE,18,0.0,1.0,66,0.00,,,0.00,Wunderground v.1.15,2013-08-05 00:52:00,
2013-08-04 20:58:00,60.7,49.7,30.02,NNE,18,0.0,1.0,67,0.00,,,0.00,Wunderground v.1.15,2013-08-05 00:58:00,
2013-08-04 21:04:00,60.2,50.4,30.02,NNE,18,0.0,0.0,70,0.00,,,0.00,Wunderground v.1.15,2013-08-05 01:04:00,
2013-08-04 21:09:00,59.6,50.6,30.02,NNE,18,0.0,0.0,72,0.00,,,0.00,Wunderground v.1.15,2013-08-05 01:09:00,
2013-08-04 21:14:00,59.2,52.3,30.02,NNE,18,0.0,0.0,78,0.00,,,0.00,Wunderground v.1.15,2013-08-05 01:14:00,
2013-08-04 21:21:00,58.5,52.4,30.02,NNE,18,0.0,0.0,80,0.00,,,0.00,Wunderground v.1.15,2013-08-05 01:21:00,
2013-08-04 21:26:00,57.8,53.0,30.03,NNE,18,0.0,0.0,83,0.00,,,0.00,weatherlink.com 1.10,2013-08-05 01:26:00,
2013-08-04 21:31:00,56.9,51.5,30.03,NNE,18,0.0,0.0,82,0.00,,,0.00,Wunderground v.1.15,2013-08-05 01:31:00,
2013-08-04 21:37:00,56.3,51.2,30.03,NNE,18,0.0,0.0,83,0.00,,,0.00,Wunderground v.1.15,2013-08-05 01:37:00,
2013-08-04 21:43:00,55.9,52.0,30.03,NNE,18,0.0,0.0,85,0.00,,,0.00,weatherlink.com 1.10,2013-08-05 01:43:00,
2013-08-04 21:49:00,55.6,51.2,30.03,NNE,18,0.0,0.0,85,0.00,,,0.00,Wunderground v.1.15,2013-08-05 01:49:00,
2013-08-04 21:54:00,55.3,51.2,30.03,NNE,18,0.0,0.0,86,0.00,,,0.00,Wunderground v.1.15,2013-08-05 01:54:00,
2013-08-04 22:00:00,55.1,51.3,30.03,NNE,18,0.0,0.0,87,0.00,,,0.00,Wunderground v.1.15,2013-08-05 02:00:00,
2013-08-04 22:06:00,55.0,51.8,30.03,NNE,18,0.0,0.0,89,0.00,,,0.00,Wunderground v.1.15,2013-08-05 02:06:00,
2013-08-04 22:11:00,54.7,51.8,30.03,NNE,18,0.0,0.0,90,0.00,,,0.00,Wunderground v.1.15,2013-08-05 02:11:00,
2013-08-04 22:17:00,54.5,51.6,30.04,NNE,18,0.0,0.0,90,0.00,,,0.00,Wunderground v.1.15,2013-08-05 02:17:00,
2013-08-04 22:22:00,54.3,51.4,30.04,NNE,18,0.0,0.0,90,0.00,,,0.00,Wunderground v.1.15,2013-08-05 02:22:00,
2013-08-04 22:27:00,54.1,51.0,30.04,NNE,18,0.0,0.0,90,0.00,,,0.00,weatherlink.com 1.10,2013-08-05 02:27:00,
2013-08-04 22:33:00,53.9,51.0,30.03,NNE,18,0.0,0.0,90,0.00,,,0.00,Wunderground v.1.15,2013-08-05 02:33:00,
2013-08-04 22:38:00,53.7,50.8,30.03,NNE,18,0.0,0.0,90,0.00,,,0.00,Wunderground v.1.15,2013-08-05 02:38:00,
2013-08-04 22:44:00,53.6,51.0,30.04,NNE,18,0.0,0.0,91,0.00,,,0.00,Wunderground v.1.15,2013-08-05 02:44:00,
2013-08-04 22:50:00,53.5,51.2,30.03,NNE,18,0.0,0.0,92,0.00,,,0.00,Wunderground v.1.15,2013-08-05 02:50:00,
2013-08-04 22:56:00,53.3,51.3,30.03,NNE,18,0.0,0.0,93,0.00,,,0.00,Wunderground v.1.15,2013-08-05 02:56:00,
2013-08-04 23:02:00,53.1,50.8,30.04,NNE,18,0.0,0.0,92,0.00,,,0.00,Wunderground v.1.15,2013-08-05 03:02:00,
2013-08-04 23:07:00,52.9,50.9,30.04,NNE,18,0.0,0.0,93,0.00,,,0.00,Wunderground v.1.15,2013-08-05 03:07:00,
2013-08-04 23:12:00,52.8,50.8,30.04,NNE,18,0.0,0.0,93,0.00,,,0.00,Wunderground v.1.15,2013-08-05 03:12:00,
2013-08-04 23:18:00,52.6,50.6,30.04,NNE,18,0.0,0.0,93,0.00,,,0.00,Wunderground v.1.15,2013-08-05 03:18:00,
2013-08-04 23:25:00,52.3,50.3,30.04,NNE,18,0.0,0.0,93,0.00,,,0.00,Wunderground v.1.15,2013-08-05 03:25:00,
2013-08-04 23:31:00,52.1,50.1,30.04,NNE,18,0.0,0.0,93,0.00,,,0.00,Wunderground v.1.15,2013-08-05 03:31:00,
2013-08-04 23:36:00,51.9,50.2,30.04,NNE,18,0.0,0.0,94,0.00,,,0.00,Wunderground v.1.15,2013-08-05 03:36:00,
2013-08-04 23:42:00,51.8,50.0,30.04,NNE,18,0.0,0.0,94,0.00,,,0.00,weatherlink.com 1.10,2013-08-05 03:42:00,
2013-08-04 23:47:00,51.6,49.9,30.04,NNE,18,0.0,0.0,94,0.00,,,0.00,Wunderground v.1.15,2013-08-05 03:47:00,
2013-08-04 23:53:00,51.5,49.8,30.04,NNE,18,0.0,0.0,94,0.00,,,0.00,Wunderground v.1.15,2013-08-05 03:53:00,
2013-08-04 23:58:00,51.4,49.7,30.04,NNE,18,0.0,0.0,94,0.00,,,0.00,Wunderground v.1.15,2013-08-05 03:58:00,